CW5212 Weather Reports


Display with metric or nautical units.
time (UTC)temp
F
wind
direction
speed
MPH
gust
MPH
rain 1hr
in
rain 24hr
in
rain mn
in
humidity
%
barometer
mb
20260502163014 56 124 9.0 14.0 0.00 0.00 0.00 30 952.4
20260502161548 56 155 8.0 13.0 0.00 0.00 0.00 33 952.4
20260502151525 52 139 10.0 17.0 0.00 0.00 0.00 35 952.5
20260502150108 52 121 12.0 18.0 0.00 0.00 0.00 34 952.6
20260502123017 44 86 4.0 8.0 0.00 0.00 0.00 43 952.2
20260502121549 43 36 2.0 4.0 0.00 0.00 0.00 45 952.3
20260502114603 47 117 8.0 13.0 0.00 0.00 0.00 40 952.2
20260502114508 47 100 8.0 13.0 0.00 0.00 0.00 39 952.2
20260502113044 47 81 9.0 13.0 0.00 0.00 0.00 36 952.3
20260502111521 47 92 8.0 12.0 0.00 0.00 0.00 38 952.4
20260502104540 47 111 7.0 11.0 0.00 0.00 0.00 37 952.5
20260502103014 47 105 8.0 12.0 0.00 0.00 0.00 39 952.5
20260502101615 47 93 9.0 13.0 0.00 0.00 0.00 39 952.6
20260502091521 48 96 7.0 11.0 0.00 0.00 0.00 37 952.6
20260502070045 51 54 0.0 3.0 0.00 0.00 0.00 28 953.1
20260502064532 52 54 1.0 3.0 0.00 0.00 0.00 28 953.1
20260502063026 52 54 1.0 2.0 0.00 0.00 0.00 26 953.2
20260502061513 52 54 0.0 1.0 0.00 0.00 0.00 27 953.1
20260502060013 52 54 0.0 1.0 0.00 0.00 0.00 27 953.3
20260502054604 52 54 1.0 3.0 0.00 0.00 0.00 26 953.2
20260502054502 52 54 1.0 3.0 0.00 0.00 0.00 26 953.2
20260502053007 52 301 0.0 1.0 0.00 0.00 0.00 27 953.3
20260502051522 52 301 0.0 2.0 0.00 0.00 0.00 26 953.3
20260502050017 52 301 0.0 2.0 0.00 0.00 0.00 26 953.5
20260502044527 53 301 0.0 0.0 0.00 0.00 0.00 26 953.5
20260502043027 52 301 0.0 0.0 0.00 0.00 0.00 26 953.5
20260502041541 52 301 0.0 1.0 0.00 0.00 0.00 24 953.5
20260502040045 52 301 0.0 0.0 0.00 0.00 0.00 23 953.5
20260502034549 52 301 0.0 0.0 0.00 0.00 0.00 24 953.5
20260502033103 52 301 0.0 2.0 0.00 0.00 0.00 23 953.5
20260502031603 52 301 0.0 1.0 0.00 0.00 0.00 22 953.4
20260502031503 52 301 0.0 1.0 0.00 0.00 0.00 22 953.4
20260502030009 51 301 0.0 1.0 0.00 0.00 0.00 23 953.3
20260502024532 52 296 0.0 1.0 0.00 0.00 0.00 23 953.2
20260502023021 52 309 0.0 1.0 0.00 0.00 0.00 24 953.2
20260502021527 54 309 0.0 1.0 0.00 0.00 0.00 23 953.1
20260502020031 55 304 0.0 7.0 0.00 0.00 0.00 24 953.2
20260502014539 56 275 2.0 7.0 0.00 0.00 0.00 23 952.9
20260502013025 58 332 2.0 4.0 0.00 0.00 0.00 23 953.0
20260502011506 58 323 2.0 5.0 0.00 0.00 0.00 23 953.0
20260502010043 58 315 2.0 10.0 0.00 0.00 0.00 24 953.0
20260502004519 59 336 3.0 10.0 0.00 0.00 0.00 25 953.0
20260502003057 59 345 3.0 6.0 0.00 0.00 0.00 24 952.9
20260502001531 60 311 3.0 8.0 0.00 0.00 0.00 25 952.9
20260502000011 60 287 4.0 11.0 0.00 0.00 0.00 26 952.9
20260501234545 60 290 1.0 8.0 0.00 0.00 0.00 25 952.9
20260501233025 60 327 4.0 12.0 0.00 0.00 0.00 26 952.8
20260501231603 60 299 5.0 12.0 0.00 0.00 0.00 26 952.9
20260501231509 60 311 5.0 12.0 0.00 0.00 0.00 27 952.9
20260501230045 59 282 5.0 11.0 0.00 0.00 0.00 26 953.1
20260501224520 59 289 7.0 13.0 0.00 0.00 0.00 26 953.1
20260501223108 59 313 9.0 13.0 0.00 0.00 0.00 28 953.3
20260501221531 59 312 3.0 11.0 0.00 0.00 0.00 28 953.5
20260501220010 59 200 3.0 11.0 0.00 0.00 0.00 31 953.7
20260501214546 59 351 5.0 11.0 0.00 0.00 0.00 30 953.8
20260501213021 59 120 4.0 12.0 0.00 0.00 0.00 31 953.9
20260501211559 58 350 4.0 12.0 0.00 0.00 0.00 29 954.1
20260501211501 58 339 3.0 12.0 0.00 0.00 0.00 30 954.1
20260501210039 59 340 4.0 11.0 0.00 0.00 0.00 29 954.1
20260501204515 58 64 3.0 8.0 0.00 0.00 0.00 34 954.0
20260501203102 58 316 4.0 10.0 0.00 0.00 0.00 32 954.1
20260501201529 58 306 2.0 10.0 0.00 0.00 0.00 37 954.2
20260501200012 57 276 5.0 9.0 0.00 0.00 0.00 32 954.2
20260501194543 57 355 4.0 13.0 0.00 0.00 0.00 33 954.4
20260501193023 56 243 6.0 12.0 0.00 0.00 0.00 35 954.5
20260501191557 57 248 7.0 12.0 0.00 0.00 0.00 33 954.6
20260501191503 56 246 7.0 12.0 0.00 0.00 0.00 33 954.6
20260501190038 55 273 8.0 14.0 0.00 0.00 0.00 34 954.7
20260501184543 54 259 7.0 12.0 0.00 0.00 0.00 35 954.9
20260501183056 54 261 5.0 14.0 0.00 0.00 0.00 36 955.1
20260501181533 53 281 10.0 14.0 0.00 0.00 0.00 38 955.2
20260501180017 53 139 4.0 12.0 0.00 0.00 0.00 40 955.4
20260501174552 52 255 3.0 14.0 0.00 0.00 0.00 38 955.5